St. Francis, KS

6:51 AM CDT on April 22, 2018 (GMT -0500)
Cheyenne County Municipal

Weather History for KSYF - February, 2013

Change the Weather History Date:

Thursday, February 7, 2013

  Actual Average Record
Temperature  
Mean Temperature 42 °F -  
Max Temperature 54 °F 43 °F 77 °F (2015)
Min Temperature 26 °F 14 °F -4 °F (2014)
Degree Days  
Heating Degree Days 23    
Moisture  
Dew Point 20 °F    
Average Humidity 50    
Maximum Humidity 89    
Minimum Humidity 17    
Precipitation  
Precipitation 0.00 in - - ()
Sea Level Pressure  
Sea Level Pressure 30.10 in    
Wind  
Wind Speed 10 mph (NNW)    
Max Wind Speed 14 mph    
Max Gust Speed 21 mph    
Visibility 10 miles    
Events      
Averages and records for this station are not official NWS values.
T = Trace of Precipitation, MM = Missing Value Source: NWS Daily Summary

Daily Weather History Graph

Daily Weather History Graph

Search for Another Location

Airport or City:

Astronomy

Feb. 07, 2013 Rise Set
Actual Time 7:48 AM CST 6:14 PM CST
Civil Twilight 7:20 AM CST 6:42 PM CST
Nautical Twilight 6:48 AM CST 7:14 PM CST
Astronomical Twilight 6:17 AM CST 7:46 PM CST
Moon 5:29 AM CST (2/7) 3:41 PM CST (2/7)
Length of Visible Light 11h 21m
Length of Day
10h 25m
Waning Crescent, 9% of the Moon is Illuminated
Feb 7
Waning Crescent
Feb 10
New
Feb 17
First Quarter
Feb 25
Full
Mar 4
Last Quarter

Hourly Weather History & Observations

Time (CST) Temp. Windchill Dew Point Humidity Pressure Visibility Wind Dir Wind Speed Gust Speed Precip Events Conditions
12:15 AM 42.6 °F 35.9 °F 27.9 °F 56% 29.99 in 10.0 mi North 12.7 mph - N/A   Overcast
12:35 AM 42.1 °F 36.1 °F 27.5 °F 56% 29.99 in 10.0 mi North 10.4 mph - N/A   Overcast
12:55 AM 41.9 °F 35.9 °F 27.7 °F 57% 30.00 in 10.0 mi North 10.4 mph - N/A   Overcast
1:15 AM 42.1 °F 35.2 °F 27.5 °F 56% 29.99 in 10.0 mi North 12.7 mph - N/A   Overcast
1:35 AM 41.5 °F 35.4 °F 27.1 °F 57% 30.00 in 10.0 mi North 10.4 mph - N/A   Overcast
1:55 AM 41.0 °F 34.7 °F 26.4 °F 56% 30.00 in 10.0 mi North 10.4 mph 17.3 mph N/A   Overcast
2:15 AM 41.0 °F 34.7 °F 25.7 °F 55% 30.03 in 10.0 mi North 10.4 mph - N/A   Overcast
2:35 AM 40.3 °F 33.4 °F 25.7 °F 56% 30.04 in 10.0 mi North 11.5 mph - N/A   Overcast
2:55 AM 39.9 °F 32.9 °F 26.1 °F 58% 30.05 in 10.0 mi NNW 11.5 mph - N/A   Overcast
3:15 AM 39.0 °F 31.8 °F 26.2 °F 60% 30.05 in 10.0 mi NNW 11.5 mph 18.4 mph N/A   Scattered Clouds
3:35 AM 38.3 °F 30.9 °F 27.1 °F 64% 30.06 in 10.0 mi NNW 11.5 mph 17.3 mph N/A   Clear
3:55 AM 36.5 °F 29.2 °F 27.3 °F 69% 30.06 in 10.0 mi NNW 10.4 mph - N/A   Clear
4:15 AM 35.2 °F 28.1 °F 27.3 °F 73% 30.06 in 10.0 mi NNW 9.2 mph - N/A   Clear
4:35 AM 34.7 °F 28.1 °F 27.1 °F 74% 30.06 in 10.0 mi North 8.1 mph - N/A   Clear
4:55 AM 34.0 °F 28.8 °F 27.1 °F 76% 30.06 in 10.0 mi North 5.8 mph - N/A   Clear
5:15 AM 34.2 °F 26.8 °F 27.7 °F 77% 30.06 in 10.0 mi NNW 9.2 mph - N/A   Clear
5:35 AM 33.8 °F 27.0 °F 28.0 °F 79% 30.06 in 10.0 mi NNW 8.1 mph - N/A   Clear
5:55 AM 32.9 °F 25.9 °F 28.0 °F 82% 30.07 in 10.0 mi NNW 8.1 mph - N/A   Clear
6:15 AM 31.8 °F 23.3 °F 27.3 °F 83% 30.07 in 10.0 mi NW 10.4 mph - N/A   Clear
6:35 AM 31.8 °F 25.4 °F 27.3 °F 83% 30.07 in 10.0 mi NNW 6.9 mph - N/A   Clear
6:55 AM 32.0 °F 24.8 °F 28.2 °F 86% 30.08 in 10.0 mi NW 8.1 mph - N/A   Clear
7:15 AM 31.3 °F 23.9 °F 28.2 °F 88% 30.09 in 10.0 mi WNW 8.1 mph - N/A   Clear
7:35 AM 30.0 °F 25.2 °F 27.1 °F 89% 30.10 in 10.0 mi WNW 4.6 mph - N/A   Clear
7:55 AM 30.9 °F 26.2 °F 28.0 °F 89% 30.10 in 10.0 mi WNW 4.6 mph - N/A   Clear
8:15 AM 30.4 °F 24.5 °F 27.3 °F 88% 30.12 in 10.0 mi West 5.8 mph - N/A   Clear
8:35 AM 30.6 °F 23.8 °F 27.7 °F 89% 30.13 in 10.0 mi West 6.9 mph - N/A   Clear
8:55 AM 33.3 °F 27.9 °F 29.5 °F 86% 30.14 in 10.0 mi West 5.8 mph - N/A   Clear
9:15 AM 35.1 °F 30.1 °F 30.0 °F 82% 30.15 in 10.0 mi West 5.8 mph - N/A   Clear
9:35 AM 37.6 °F 30.5 °F 30.4 °F 75% 30.15 in 10.0 mi NW 10.4 mph - N/A   Clear
9:55 AM 39.6 °F 34.7 °F 30.0 °F 69% 30.16 in 10.0 mi NW 6.9 mph - N/A   Clear
10:15 AM 42.1 °F 36.1 °F 29.1 °F 60% 30.17 in 10.0 mi NNW 10.4 mph - N/A   Clear
10:35 AM 45.0 °F 39.7 °F 27.9 °F 51% 30.16 in 10.0 mi NNW 10.4 mph - N/A   Clear
10:55 AM 46.0 °F 41.4 °F 26.8 °F 47% 30.16 in 10.0 mi NNW 9.2 mph - N/A   Clear
11:15 AM 47.8 °F - 24.4 °F 40% 30.16 in 10.0 mi North 9.2 mph 17.3 mph N/A   Clear
11:35 AM 48.0 °F - 24.1 °F 39% 30.17 in 10.0 mi NW 13.8 mph - N/A   Clear
11:55 AM 49.1 °F - 23.5 °F 37% 30.16 in 10.0 mi NNW 8.1 mph 16.1 mph N/A   Clear
12:15 PM 50.9 °F - 18.0 °F 27% 30.15 in 10.0 mi North 11.5 mph 18.4 mph N/A   Clear
12:35 PM 51.8 °F - 16.0 °F 24% 30.14 in 10.0 mi NNW 12.7 mph - N/A   Clear
12:55 PM 52.5 °F - 13.8 °F 22% 30.14 in 10.0 mi NNW 11.5 mph 20.7 mph N/A   Clear
1:15 PM 52.9 °F - 11.3 °F 19% 30.13 in 10.0 mi NW 13.8 mph 17.3 mph N/A   Clear
1:35 PM 54.1 °F - 11.3 °F 18% 30.13 in 10.0 mi NW 12.7 mph 18.4 mph N/A   Clear
1:55 PM 53.6 °F - 12.7 °F 20% 30.12 in 10.0 mi WNW 13.8 mph 19.6 mph N/A   Clear
2:15 PM 53.8 °F - 12.6 °F 19% 30.12 in 10.0 mi NW 12.7 mph 18.4 mph N/A   Clear
2:35 PM 54.1 °F - 12.2 °F 19% 30.11 in 10.0 mi NNW 11.5 mph 18.4 mph N/A   Clear
2:55 PM 54.1 °F - 11.1 °F 18% 30.10 in 10.0 mi NNW 13.8 mph 18.4 mph N/A   Clear
3:15 PM 53.8 °F - 10.2 °F 18% 30.10 in 10.0 mi NNW 10.4 mph 16.1 mph N/A   Clear
3:35 PM 54.0 °F - 9.9 °F 17% 30.10 in 10.0 mi NNW 6.9 mph - N/A   Clear
3:55 PM 53.6 °F - 9.9 °F 17% 30.10 in 10.0 mi NNW 8.1 mph - N/A   Clear
4:15 PM 53.6 °F - 10.0 °F 18% 30.10 in 10.0 mi NNW 5.8 mph - N/A   Clear
4:35 PM 52.7 °F - 9.3 °F 18% 30.10 in 10.0 mi NNW 3.5 mph - N/A   Clear
4:55 PM 52.3 °F - 9.5 °F 18% 30.10 in 10.0 mi NW 5.8 mph - N/A   Clear
5:35 PM 50.0 °F - 8.6 °F 19% 30.11 in 10.0 mi North 4.6 mph - N/A   Clear
5:55 PM 48.2 °F - 10.4 °F 22% 30.12 in 10.0 mi Calm Calm - N/A   Clear
6:15 PM 46.0 °F - 11.3 °F 25% 30.12 in 10.0 mi Calm Calm - N/A   Clear
6:35 PM 44.6 °F - 11.3 °F 26% 30.12 in 10.0 mi Calm Calm - N/A   Clear
6:55 PM 43.9 °F 42.3 °F 12.0 °F 27% 30.12 in 10.0 mi ENE 3.5 mph - N/A   Clear
7:15 PM 39.7 °F 36.5 °F 12.9 °F 33% 30.13 in 10.0 mi East 4.6 mph - N/A   Clear
7:35 PM 36.1 °F 30.6 °F 14.0 °F 40% 30.13 in 10.0 mi ESE 6.9 mph - N/A   Clear
7:55 PM 36.7 °F 31.2 °F 14.0 °F 39% 30.14 in 10.0 mi SE 6.9 mph - N/A   Clear
8:15 PM 34.3 °F 27.0 °F 14.9 °F 45% 30.14 in 10.0 mi SE 9.2 mph - N/A   Clear
8:35 PM 33.4 °F 25.9 °F 14.9 °F 47% 30.14 in 10.0 mi SE 9.2 mph - N/A   Clear
8:55 PM 33.3 °F 25.1 °F 15.4 °F 48% 30.13 in 10.0 mi SE 10.4 mph - N/A   Clear
9:15 PM 32.7 °F 24.5 °F 14.9 °F 48% 30.14 in 10.0 mi SSE 10.4 mph - N/A   Clear
9:35 PM 32.4 °F 24.6 °F 15.1 °F 49% 30.14 in 10.0 mi SSE 9.2 mph - N/A   Clear
9:55 PM 31.1 °F 22.4 °F 15.4 °F 52% 30.14 in 10.0 mi SSE 10.4 mph - N/A   Clear
10:15 PM 32.2 °F 23.8 °F 15.6 °F 51% 30.14 in 10.0 mi SSE 10.4 mph - N/A   Clear
10:35 PM 31.8 °F 23.3 °F 15.3 °F 50% 30.13 in 10.0 mi SSE 10.4 mph - N/A   Clear
10:55 PM 32.7 °F 24.5 °F 14.9 °F 48% 30.14 in 10.0 mi SSE 10.4 mph - N/A   Clear
11:15 PM 32.0 °F 24.8 °F 14.9 °F 49% 30.13 in 10.0 mi SSE 8.1 mph - N/A   Clear
11:35 PM 32.0 °F 27.5 °F 14.7 °F 49% 30.13 in 10.0 mi SSE 4.6 mph - N/A   Clear
11:55 PM 26.1 °F 20.5 °F 14.4 °F 61% 30.13 in 10.0 mi SSE 4.6 mph - N/A   Clear